SCP
0 0 0 0 0 0 0 0 0 0 0 0 0 0 0 0 0 0 0 -0 0 0 -0 -0 0 0 0 0 0 0 0 0 0 0 0 0 0 0 0 0 0 0 0 0 0 0 0 1 0 1 0 1 0 0
0 0 0 0 0 0 0 0 0 0 0 0 0 0 0 0 0 0 0 0 0 0 -0 -0 -0 0 -0 -0 -0 0 -0 -0 0 0 -0 -0 0 0 0 0 0 0 0 0 0 0 0 0 0 0 0 0 0 0
0 0 0 0 0 0 0 0 0 0 0 0 0 0 0 0 0 0 0 0 0 0 0 0 0 0 0 -0 -0 0 0 0 0 -0 -0 -0 -0 -0 0 0 -0 -0 0 -0 -0 0 0 0 0 0 0 0 0 0
0 0 0 0 0 0 0 0 0 0 0 0 0 0 0 0 0 0 0 0 0 0 0 0 0 0 0 0 -0 0 -0 0 0 -0 -0 0 0 0 0 -0 0 0 0 -0 0 1 0 0 0 0 0 0 0 0
0 0 0 0 0 0 0 0 0 0 0 0 0 0 0 0 0 0 0 0 -0 0 0 0 -0 -0 0 -0 0 0 0 0 0 0 0 0 -0 0 0 0 -0 -0 0 0 0 0 0 -0 -0 -0 0 -0 0 0
0 0 0 0 0 0 0 0 0 0 0 0 0 0 0 0 0 0 0 0 0 0 0 0 0 0 0 -0 0 0 0 0 0 0 0 0 -0 0 0 -0 0 -0 0 0 0 0 -0 -0 -0 0 0 0 0 0
0 0 0 0 0 0 0 0 0 0 0 0 0 0 0 0 0 0 0 0 0 0 0 0 0 0 -0 -0 0 0 0 0 -0 0 0 0 0 0 0 0 0 -0 -0 0 -0 0 0 0 0 0 -0 0 0 0
0 0 0 0 0 0 0 0 0 0 0 0 0 0 0 0 0 0 0 0 0 0 0 0 0 0 -0 0 0 0 -0 0 0 0 0 0 0 0 0 0 0 0 -0 0 -0 -0 0 0 0 0 0 0 0 0
0 0 0 0 0 0 0 0 0 0 0 0 0 0 0 0 0 0 0 0 0 0 0 0 0 0 0 -0 -0 0 -0 0 -0 0 0 0 0 0 0 0 -0 0 -0 -0 0 0 0 0 0 0 0 0 0 0
0 0 0 0 0 0 0 0 0 0 0 0 0 0 0 0 0 0 0 0 0 0 0 -0 0 0 -0 0 0 0 0 0 0 0 -0 0 -0 0 -0 -0 0 0 0 0 0 0 0 0 0 0 0 0 0 0
0 0 0 0 0 0 0 0 0 0 0 0 0 0 0 0 0 0 0 0 0 0 0 0 -0 -0 0 0 0 0 0 0 0 0 0 0 0 0 -0 0 0 0 0 0 0 0 0 0 0 0 0 0 0 0
0 0 0 0 0 0 0 0 0 0 0 0 0 0 0 0 0 0 0 0 0 0 0 0 0 0 0 0 0 0 0 0 0 0 0 0 0 0 0 0 0 0 -0 0 0 0 0 0 0 0 0 0 0 0
0 0 0 0 0 0 0 0 0 0 0 0 0 0 0 0 0 0 0 0 0 0 0 0 0 0 0 0 0 0 0 0 0 0 -0 0 0 0 0 0 0 0 0 0 0 0 0 0 0 0 0 0 0 0
0 0 0 0 0 0 0 0 0 0 0 0 0 0 0 0 0 0 -0 -0 0 0 0 0 0 0 0 0 0 0 0 0 -0 0 0 0 0 0 0 0 0 0 0 0 0 0 0 0 0 0 0 0 0 0
0 0 0 0 0 0 0 0 0 0 0 0 0 0 0 0 0 -0 0 0 0 0 0 0 0 0 0 0 0 -0 -0 0 0 0 0 0 0 0 0 0 0 0 0 0 0 0 0 0 0 0 0 0 0 0
0 0 0 0 0 0 0 0 0 0 0 0 0 0 0 0 0 0 0 0 0 0 0 0 0 0 0 0 0 0 0 0 0 0 0 0 0 0 0 0 0 0 0 0 0 0 0 0 0 0 0 0 0 0
0 0 0 0 0 0 0 0 0 0 0 0 0 0 0 0 0 0 0 0 0 0 0 0 0 0 0 0 0 0 0 0 0 0 0 0 0 0 0 0 0 0 0 0 0 0 0 0 0 0 0 0 0 0
0 0 0 0 0 0 0 0 0 0 0 0 0 0 0 0 0 0 0 0 0 0 0 0 0 0 0 -0 0 0 0 0 1 1 0 0 0 0 0 0 0 0 0 0 0 0 0 0 0 0 0 0 0 0
0 0 0 0 0 0 0 0 0 0 0 0 0 0 0 0 0 0 0 0 0 0 0 0 0 0 0 -0 -0 0 0 0 0 0 0 0 0 0 0 0 0 0 0 0 0 0 0 0 0 0 0 0 0 0
0 0 0 0 0 0 0 0 0 0 0 0 0 0 0 0 0 0 0 0 0 0 -0 0 0 -0 -0 0 0 0 0 0 0 0 0 0 0 0 0 0 0 0 0 0 0 0 0 0 0 0 0 0 0 0
0 0 0 0 0 0 0 0 0 0 0 0 0 0 0 0 0 0 -0 -0 -0 -0 -0 0 0 0 -0 0 0 -0 0 0 0 0 0 0 0 0 0 0 0 0 0 0 0 0 0 0 0 0 0 0 0 0
0 0 0 0 0 0 0 0 0 0 0 0 0 0 0 0 -0 -0 0 0 0 0 0 0 -0 -0 0 0 0 0 0 0 0 0 0 0 -0 0 0 0 0 0 0 0 0 0 0 0 0 0 0 0 0 0
0 0 0 0 0 0 0 0 0 0 0 -0 0 0 -0 -0 0 0 0 0 0 0 0 -0 0 0 -0 0 0 0 0 0 0 0 0 0 0 0 0 0 0 0 0 0 0 0 0 0 0 0 0 0 0 0
0 0 0 0 0 0 0 0 0 0 0 0 0 0 -0 -0 0 -0 0 -0 -0 -0 0 -0 -0 0 -0 0 -0 0 -0 0 0 0 0 0 0 0 0 0 0 0 0 0 0 0 0 0 0 0 0 0 0 0
0 0 0 0 0 0 0 0 0 0 -0 -0 0 -0 -0 -0 0 0 0 -0 0 0 0 0 -0 0 -0 -0 0 0 0 -0 0 0 0 0 0 0 0 0 0 0 0 0 0 0 0 0 0 0 0 0 0 0
0 0 0 0 0 0 0 0 0 0 -0 -0 0 0 0 0 0 0 0 0 0 0 0 0 -0 -0 0 0 -0 0 0 0 0 0 0 0 0 0 0 0 0 0 0 0 0 0 0 0 0 0 0 0 0 0
-0 -0 -0 0 0 0 0 0 0 0 0 0 0 0 0 0 0 0 0 0 -0 0 0 0 0 -0 0 0 0 0 0 0 0 0 0 0 0 0 0 0 0 0 0 0 0 -0 -0 -0 0 0 0 0 0 0
0 0 0 0 0 0 0 0 0 -0 -0 0 0 0 0 0 0 0 0 -0 0 0 0 -0 -0 -0 -0 0 0 0 0 0 0 0 0 0 0 0 0 0 0 0 0 -0 -0 -0 -0 -0 0 0 0 0 0 0
0 0 -0 -0 -0 0 0 0 0 0 -0 0 0 0 -0 0 -0 -0 0 -0 -0 -0 -0 -0 -0 -0 -0 0 0 0 0 0 0 0 0 0 -0 0 0 0 -0 0 0 0 0 0 0 -0 0 0 0 0 0 0
0 0 0 0 0 0 0 0 0 -0 -0 0 -0 -0 -0 -0 -0 -0 -0 -0 -0 -0 0 -0 -0 -0 0 -0 -0 0 0 0 0 0 -0 0 -0 -0 0 0 0 0 0 0 -0 -0 0 0 0 0 0 0 0 -0
0 0 0 0 0 0 0 0 -0 -0 -0 -0 -0 -0 -0 0 -0 -0 -0 -0 -0 -0 -0 -0 0 -0 -0 0 0 0 -0 0 0 0 0 0 0 0 0 0 0 0 0 0 0 0 0 0 0 0 0 0 0 0
0 0 0 0 0 0 0 0 0 -0 -0 -0 -0 -0 -0 -0 0 0 0 -0 -0 -0 -0 -0 -0 0 -0 -0 -0 0 0 -0 0 0 0 0 0 0 0 0 0 0 0 0 0 0 0 0 0 0 0 0 0 0
0 0 0 0 0 0 0 0 0 0 0 0 0 -0 -0 -0 0 0 0 0 -0 0 -0 -0 -0 -0 -0 0 0 0 0 0 0 0 0 0 0 0 0 0 0 0 0 0 0 0 0 0 0 0 0 0 0 0
Wind_Speed_500mb
40 37 33 30 28 26 26 25 25 24 26 30 28 24 21 18 17 16 10 7 15 25 61 56 45 41 37 28 9 35 23 23 13 9 12 8 8 10 12 5 13 12 11 9 11 5 4 23 11 8 13 30 38 33
42 37 33 31 28 26 25 22 23 23 25 30 27 26 23 18 17 16 10 7 16 34 51 67 59 52 54 48 40 16 10 1 7 9 7 2 5 10 5 8 9 4 8 6 5 5 17 47 43 46 37 31 29 31
43 38 35 31 27 25 25 23 23 23 25 30 29 26 23 18 18 18 19 10 22 28 59 39 41 32 38 45 30 26 11 8 9 22 16 7 4 7 2 9 5 2 13 4 3 14 15 29 32 31 32 33 23 17
46 39 37 31 28 25 24 22 22 21 27 29 27 26 22 16 18 18 19 16 9 23 13 16 29 29 11 18 34 38 44 27 28 35 16 5 5 22 6 7 4 7 9 8 7 20 18 64 48 22 21 18 15 15
48 41 37 32 29 25 23 22 22 23 29 27 28 26 20 15 17 19 22 21 8 16 12 41 58 17 22 23 28 27 28 25 24 15 5 6 10 10 10 9 2 13 7 1 1 23 24 9 11 13 15 14 5 7
46 42 37 33 28 25 21 17 19 26 27 26 25 25 20 14 11 11 7 5 6 9 10 9 25 39 23 18 27 27 24 25 27 11 18 13 39 14 1 3 4 16 23 14 11 25 13 9 26 6 5 2 5 15
45 39 35 30 27 23 20 19 23 24 24 28 27 24 19 15 15 12 7 9 12 13 8 13 13 18 21 20 19 24 30 30 29 28 15 27 37 31 4 5 29 25 22 24 26 17 17 27 11 10 7 8 13 15
40 37 33 30 27 23 19 21 26 26 27 23 22 21 16 14 16 18 12 14 12 9 11 7 9 15 15 16 17 25 31 36 33 25 18 14 30 11 3 37 59 47 43 35 23 13 9 7 4 18 22 20 18 19
42 35 34 30 27 24 20 23 28 23 31 25 25 20 13 11 6 7 12 12 11 16 11 11 8 7 28 20 29 26 22 5 27 8 12 7 6 4 8 48 47 53 39 7 8 7 11 21 14 15 13 17 22 20
41 36 34 31 28 25 23 29 34 34 31 33 29 11 5 6 9 3 6 4 7 12 14 11 9 10 19 17 13 9 18 7 4 12 20 8 8 18 37 33 24 16 7 4 13 1 5 14 9 8 11 12 16 17
38 39 36 32 28 25 30 36 35 43 41 33 14 8 8 7 8 7 8 13 20 11 19 16 28 12 10 2 6 12 1 6 6 6 4 6 4 13 35 25 15 9 4 5 5 8 5 16 19 12 11 8 9 5
41 39 35 32 29 28 34 41 42 45 37 26 16 19 10 6 9 8 7 9 10 11 14 21 20 31 14 13 19 11 3 1 6 5 6 7 6 26 29 22 13 4 3 7 3 5 5 15 13 14 12 1 4 6
40 37 34 33 32 32 39 43 38 38 35 30 7 8 7 9 2 11 11 9 8 12 9 13 6 13 21 23 3 7 7 7 4 2 7 3 14 23 22 17 14 3 17 22 22 21 20 22 17 17 12 4 12 1
38 36 35 35 36 33 42 42 55 53 32 9 11 8 11 11 12 13 16 13 22 20 16 12 7 5 7 6 10 4 9 14 8 3 4 10 22 18 6 18 24 20 13 23 23 23 14 14 10 9 30 8 10 10
34 34 34 35 38 36 43 45 54 52 14 11 12 9 17 27 30 26 34 38 12 15 5 4 4 2 6 4 7 6 10 12 5 6 6 33 28 16 14 19 18 15 8 11 12 16 16 19 19 11 4 34 24 8
33 33 35 36 36 43 45 60 61 34 12 5 10 10 28 21 27 37 12 15 12 13 7 6 2 4 5 4 5 6 4 7 5 7 35 34 27 21 17 12 11 9 11 11 15 21 18 12 12 12 6 4 23 21
30 17 21 35 38 51 44 54 38 12 8 6 15 22 42 37 20 16 8 31 32 10 2 4 6 3 5 4 4 11 10 7 32 39 35 31 26 22 17 12 14 14 9 9 12 15 16 13 6 8 1 11 10 4
23 16 22 37 47 45 53 16 12 11 12 26 17 31 26 34 10 32 15 20 4 7 11 7 8 6 6 6 8 8 20 32 31 45 37 29 26 18 14 16 13 3 3 4 11 18 20 15 8 4 7 11 8 6
16 21 29 47 58 39 10 16 9 12 26 16 33 45 30 36 15 21 19 12 5 8 11 10 4 10 6 11 8 11 21 3 21 20 26 24 24 22 16 10 6 6 10 16 22 20 21 17 19 14 9 12 10 8
27 20 28 46 52 23 10 10 22 10 10 17 33 43 40 39 25 10 11 8 6 10 9 6 8 4 15 23 16 11 13 18 27 23 20 17 12 7 6 10 11 16 18 18 26 34 34 29 29 17 11 17 16 12
37 30 47 54 28 9 10 14 14 13 14 13 24 46 30 29 22 19 23 21 11 8 11 5 5 7 7 8 11 10 15 17 12 16 23 10 13 7 11 8 12 13 11 11 12 16 12 20 10 19 16 14 17 11
42 54 47 34 16 9 7 18 13 13 18 16 11 8 11 9 12 15 19 14 7 17 10 6 1 11 16 13 20 3 10 11 3 8 6 2 5 16 17 18 10 7 8 8 14 23 21 10 8 15 13 16 21 25
55 40 28 10 9 9 13 15 13 9 4 6 7 5 5 3 3 8 5 6 11 33 21 13 3 7 19 29 20 10 7 9 2 5 3 4 10 8 13 13 12 16 10 13 12 10 14 17 20 21 20 24 23 28
38 18 8 9 16 7 7 8 8 6 4 3 2 5 5 2 3 4 5 10 1 10 26 26 35 33 34 41 30 15 7 4 9 11 11 5 4 9 15 11 14 10 16 17 20 25 23 21 28 22 18 15 15 13
10 14 9 3 6 7 8 9 5 3 6 7 5 2 4 3 3 2 6 8 10 28 25 10 37 59 54 33 22 18 7 10 4 16 12 12 9 10 6 7 10 12 13 14 19 15 16 21 18 11 12 15 13 16
4 9 9 18 11 9 9 10 12 10 5 7 10 3 3 4 3 5 4 8 27 30 23 23 24 16 12 7 7 9 10 10 9 9 11 6 6 10 10 15 21 20 13 19 14 18 18 14 14 12 12 15 17 18
6 11 11 15 7 8 4 4 6 7 11 12 8 7 1 7 6 4 18 39 30 16 17 14 11 7 5 5 14 11 14 15 13 7 6 6 5 5 11 16 18 17 15 16 21 22 21 20 19 21 22 26 25 29
15 11 16 24 10 10 8 11 14 7 5 9 11 20 11 6 6 13 23 26 17 16 13 13 11 12 12 8 4 10 13 8 7 10 9 1 7 32 25 27 17 21 25 37 34 23 27 31 33 38 36 42 43 32
16 19 15 14 11 12 12 10 13 5 33 37 23 23 39 41 33 24 19 24 19 18 16 17 19 14 14 14 13 8 9 8 10 8 15 17 27 29 15 19 10 22 26 23 27 41 26 24 32 44 41 45 34 31
54 79 36 40 15 23 22 26 22 43 49 53 55 55 56 61 57 51 46 37 28 31 23 19 24 28 21 21 14 1 4 4 6 7 24 22 25 32 21 24 22 20 20 15 20 30 12 20 32 40 37 33 49 53
39 54 49 40 27 36 50 56 58 58 52 49 45 48 41 37 42 53 46 25 25 24 21 29 24 17 18 21 30 26 26 18 19 15 13 16 15 15 20 27 38 33 24 17 25 36 40 38 33 22 23 22 24 18
36 43 39 32 39 45 49 46 44 47 45 43 43 38 35 45 23 33 51 33 28 21 25 24 17 26 29 28 23 30 27 23 20 13 9 17 25 22 18 22 28 33 33 30 29 29 36 32 27 36 33 33 34 38
38 41 33 20 10 13 26 24 32 35 38 35 27 29 30 22 13 10 32 36 35 20 19 22 22 28 21 23 13 15 22 20 11 11 15 20 26 28 26 23 25 23 20 23 21 17 26 33 33 33 36 36 33 34
Wind_Direction_500mb
244 244 249 256 258 264 269 271 258 250 236 217 223 233 245 254 260 272 280 207 256 271 284 285 295 290 307 311 327 326 333 2 329 45 22 338 348 357 10 51 337 356 331 20 347 318 296 332 121 67 139 106 133 107
236 238 242 248 252 259 265 269 256 245 229 212 218 224 238 242 256 264 255 235 287 266 273 289 285 268 257 255 273 284 288 324 359 347 164 181 357 2 337 318 341 77 1 315 44 347 318 59 87 105 105 99 76 83
231 233 238 241 246 253 258 263 254 240 221 206 216 224 233 243 250 262 273 307 329 306 305 278 275 274 273 263 243 235 246 224 201 282 289 147 141 144 147 256 196 39 339 332 208 88 192 97 78 88 95 99 97 112
225 227 233 236 240 246 253 254 250 230 208 207 212 220 229 241 245 258 277 296 276 309 285 298 324 293 302 238 228 230 242 261 281 291 284 269 175 203 235 229 129 84 166 271 279 16 35 27 23 39 78 82 79 50
219 222 227 229 232 239 247 257 219 210 196 211 214 221 222 238 250 275 290 292 201 270 296 300 314 252 274 215 218 237 231 250 264 292 291 248 281 165 235 157 222 183 190 158 321 142 126 195 57 86 330 3 45 20
216 219 222 224 227 233 235 239 209 197 204 206 215 214 220 238 241 291 341 35 304 279 286 290 295 287 260 245 202 224 233 238 242 249 283 277 300 288 276 84 137 164 212 197 154 214 221 163 181 201 241 284 321 312
213 215 218 220 223 229 226 216 200 195 201 201 215 205 217 229 229 214 234 214 234 257 256 285 285 287 238 236 212 227 232 237 251 271 268 277 285 288 220 114 169 202 196 220 193 214 162 174 239 250 246 324 324 296
205 209 210 216 219 217 219 207 193 192 190 198 188 196 213 237 255 271 275 234 295 288 253 273 275 278 233 198 209 229 233 244 231 220 236 238 274 207 231 151 173 174 185 196 167 160 226 198 63 63 46 36 48 60
200 205 206 207 212 210 210 197 189 194 180 189 185 181 205 228 213 283 258 246 266 232 299 266 279 307 349 320 250 194 212 238 254 210 216 227 244 225 237 167 174 179 205 232 150 119 70 91 70 40 358 343 12 356
194 196 205 203 206 203 191 182 181 183 177 173 162 158 198 214 172 223 258 226 230 219 232 251 269 282 333 354 299 303 188 207 266 222 216 165 239 140 116 118 120 116 137 261 277 277 2 100 102 108 18 15 57 55
195 200 200 199 198 196 186 178 176 168 165 162 162 151 140 176 200 235 236 214 195 221 211 238 225 252 276 325 291 291 308 259 223 233 153 184 55 127 121 111 108 114 108 225 224 243 194 163 162 138 130 93 44 23
192 195 195 192 192 189 186 176 181 179 170 165 131 118 115 202 235 257 227 229 237 221 220 190 194 199 257 249 238 274 220 279 286 54 72 33 287 128 127 119 120 159 258 356 117 214 60 130 102 135 114 317 279 63
188 194 192 189 188 188 186 176 174 181 158 138 123 144 157 228 205 226 219 230 209 232 151 161 197 213 204 216 342 14 332 211 159 195 182 80 172 111 112 133 138 73 48 46 59 70 83 94 110 138 178 288 219 155
188 189 190 187 186 187 170 170 184 170 149 143 170 171 214 204 224 209 249 260 232 294 147 187 219 274 275 189 128 94 296 288 151 247 83 152 119 107 88 80 105 81 60 52 52 49 39 21 359 292 311 22 342 259
186 189 188 186 187 175 166 175 178 161 166 187 200 213 219 238 263 267 247 265 248 263 201 132 165 77 286 347 41 158 201 227 269 87 106 135 139 132 107 73 61 58 30 14 30 57 34 8 16 25 101 311 232 250
183 185 192 186 182 169 170 180 168 171 179 249 246 255 271 232 244 259 236 325 310 197 187 115 272 236 55 22 285 193 262 281 101 92 127 133 130 124 119 139 116 69 48 30 13 8 5 357 346 355 358 147 188 225
178 171 196 186 174 171 177 177 165 175 179 258 250 256 268 275 299 320 300 292 190 228 202 244 205 241 102 296 78 318 260 150 121 133 140 143 142 141 144 109 85 77 68 46 21 358 343 343 314 343 216 181 192 243
157 169 164 177 168 170 167 148 151 183 208 233 257 253 264 263 273 297 274 322 20 295 244 261 313 242 190 227 279 9 16 98 134 143 144 147 146 149 164 134 133 120 323 349 325 331 334 281 333 185 302 207 214 269
118 179 170 172 169 154 124 167 161 219 229 239 252 265 284 302 237 252 321 317 341 311 340 303 176 262 252 267 334 338 333 247 127 156 147 147 166 162 133 128 160 212 270 281 299 297 295 282 277 296 169 187 221 255
143 169 168 163 155 159 155 172 181 259 258 227 233 253 261 260 276 271 323 303 288 316 252 237 251 9 346 339 20 12 29 59 145 174 157 152 161 144 184 202 237 258 267 274 310 304 283 294 260 261 252 236 228 215
150 149 158 171 176 195 190 168 186 219 262 263 230 226 245 256 255 268 264 276 239 229 236 314 66 305 317 310 11 75 47 359 154 171 150 150 187 217 259 272 243 262 278 277 306 339 336 329 319 248 281 268 239 225
147 157 169 151 189 219 258 210 222 213 205 251 332 289 274 306 295 274 286 247 245 237 289 200 91 297 234 359 309 295 159 230 342 107 108 106 225 258 264 246 356 237 214 279 305 310 312 287 232 276 302 278 260 230
149 157 160 158 186 218 259 217 214 216 208 176 212 241 206 208 290 305 35 29 217 218 221 252 249 230 243 267 265 252 211 200 136 271 224 300 309 355 37 17 345 328 313 314 311 301 281 288 295 293 285 269 265 228
142 146 140 206 198 233 269 199 193 167 142 206 193 236 208 198 12 178 56 305 321 216 242 262 227 210 222 261 255 234 231 271 261 301 212 216 53 24 336 343 358 327 315 333 339 328 309 293 292 298 277 257 251 248
150 187 199 227 174 203 191 157 144 211 187 185 237 226 144 169 90 265 227 121 123 231 247 182 200 225 230 261 240 195 217 300 47 103 62 29 358 329 18 18 357 352 342 337 333 330 326 331 321 296 291 287 300 308
173 190 173 192 175 206 191 170 186 189 181 183 220 79 63 246 261 325 276 186 175 229 251 206 181 173 144 135 158 192 84 75 54 15 4 37 49 29 14 347 335 1 12 348 328 352 341 335 336 338 314 296 273 263
216 197 204 199 183 167 205 221 168 193 202 202 154 131 181 215 168 145 191 137 152 126 127 107 89 46 102 65 48 63 66 43 43 42 88 29 347 287 306 330 338 332 335 342 334 312 315 298 313 297 296 290 288 287
234 225 194 181 174 197 268 188 187 211 316 240 200 180 186 99 106 111 125 131 136 107 81 58 29 357 335 291 293 43 74 97 63 52 27 272 337 328 302 320 313 310 328 330 317 307 288 289 284 288 294 283 283 286
202 213 200 176 217 229 241 231 212 206 104 97 90 90 101 111 124 142 124 95 92 68 62 68 46 46 62 70 105 93 95 56 15 30 19 14 356 347 329 338 264 274 331 331 306 313 291 288 281 288 292 295 308 302
136 170 174 183 160 131 125 107 75 108 98 97 97 87 76 66 69 79 76 66 65 71 58 62 53 42 47 54 58 103 305 336 351 31 1 338 13 17 345 314 300 307 322 358 319 331 345 322 318 330 304 296 303 299
83 73 64 59 51 67 71 83 80 78 77 78 86 88 88 80 69 54 57 50 52 67 74 44 41 35 47 20 11 20 23 358 342 345 6 34 26 2 359 351 347 359 350 320 324 335 321 313 332 345 326 319 20 332
84 90 86 85 77 76 80 85 87 87 85 89 95 89 77 72 62 44 29 42 69 76 51 57 68 72 58 48 41 35 32 17 21 36 28 345 337 336 337 333 325 325 333 342 339 329 332 339 355 3 11 6 359 358
86 88 95 88 73 82 91 92 80 76 74 65 58 77 81 73 83 123 63 61 60 72 69 41 41 41 44 39 33 27 11 12 16 29 3 343 342 338 333 342 342 344 342 341 338 0 354 347 345 344 348 353 349 351
Wind_Speed_850mb
40 37 33 30 28 26 26 25 25 24 26 30 28 24 21 18 17 16 10 7 15 25 61 56 45 41 37 28 9 35 23 23 13 9 12 8 8 10 12 5 13 12 11 9 11 5 4 23 11 8 13 30 38 33
42 37 33 31 28 26 25 22 23 23 25 30 27 26 23 18 17 16 10 7 16 34 51 67 59 52 54 48 40 16 10 1 7 9 7 2 5 10 5 8 9 4 8 6 5 5 17 47 43 46 37 31 29 31
43 38 35 31 27 25 25 23 23 23 25 30 29 26 23 18 18 18 19 10 22 28 59 39 41 32 38 45 30 26 11 8 9 22 16 7 4 7 2 9 5 2 13 4 3 14 15 29 32 31 32 33 23 17
46 39 37 31 28 25 24 22 22 21 27 29 27 26 22 16 18 18 19 16 9 23 13 16 29 29 11 18 34 38 44 27 28 35 16 5 5 22 6 7 4 7 9 8 7 20 18 64 48 22 21 18 15 15
48 41 37 32 29 25 23 22 22 23 29 27 28 26 20 15 17 19 22 21 8 16 12 41 58 17 22 23 28 27 28 25 24 15 5 6 10 10 10 9 2 13 7 1 1 23 24 9 11 13 15 14 5 7
46 42 37 33 28 25 21 17 19 26 27 26 25 25 20 14 11 11 7 5 6 9 10 9 25 39 23 18 27 27 24 25 27 11 18 13 39 14 1 3 4 16 23 14 11 25 13 9 26 6 5 2 5 15
45 39 35 30 27 23 20 19 23 24 24 28 27 24 19 15 15 12 7 9 12 13 8 13 13 18 21 20 19 24 30 30 29 28 15 27 37 31 4 5 29 25 22 24 26 17 17 27 11 10 7 8 13 15
40 37 33 30 27 23 19 21 26 26 27 23 22 21 16 14 16 18 12 14 12 9 11 7 9 15 15 16 17 25 31 36 33 25 18 14 30 11 3 37 59 47 43 35 23 13 9 7 4 18 22 20 18 19
42 35 34 30 27 24 20 23 28 23 31 25 25 20 13 11 6 7 12 12 11 16 11 11 8 7 28 20 29 26 22 5 27 8 12 7 6 4 8 48 47 53 39 7 8 7 11 21 14 15 13 17 22 20
41 36 34 31 28 25 23 29 34 34 31 33 29 11 5 6 9 3 6 4 7 12 14 11 9 10 19 17 13 9 18 7 4 12 20 8 8 18 37 33 24 16 7 4 13 1 5 14 9 8 11 12 16 17
38 39 36 32 28 25 30 36 35 43 41 33 14 8 8 7 8 7 8 13 20 11 19 16 28 12 10 2 6 12 1 6 6 6 4 6 4 13 35 25 15 9 4 5 5 8 5 16 19 12 11 8 9 5
41 39 35 32 29 28 34 41 42 45 37 26 16 19 10 6 9 8 7 9 10 11 14 21 20 31 14 13 19 11 3 1 6 5 6 7 6 26 29 22 13 4 3 7 3 5 5 15 13 14 12 1 4 6
40 37 34 33 32 32 39 43 38 38 35 30 7 8 7 9 2 11 11 9 8 12 9 13 6 13 21 23 3 7 7 7 4 2 7 3 14 23 22 17 14 3 17 22 22 21 20 22 17 17 12 4 12 1
38 36 35 35 36 33 42 42 55 53 32 9 11 8 11 11 12 13 16 13 22 20 16 12 7 5 7 6 10 4 9 14 8 3 4 10 22 18 6 18 24 20 13 23 23 23 14 14 10 9 30 8 10 10
34 34 34 35 38 36 43 45 54 52 14 11 12 9 17 27 30 26 34 38 12 15 5 4 4 2 6 4 7 6 10 12 5 6 6 33 28 16 14 19 18 15 8 11 12 16 16 19 19 11 4 34 24 8
33 33 35 36 36 43 45 60 61 34 12 5 10 10 28 21 27 37 12 15 12 13 7 6 2 4 5 4 5 6 4 7 5 7 35 34 27 21 17 12 11 9 11 11 15 21 18 12 12 12 6 4 23 21
30 17 21 35 38 51 44 54 38 12 8 6 15 22 42 37 20 16 8 31 32 10 2 4 6 3 5 4 4 11 10 7 32 39 35 31 26 22 17 12 14 14 9 9 12 15 16 13 6 8 1 11 10 4
23 16 22 37 47 45 53 16 12 11 12 26 17 31 26 34 10 32 15 20 4 7 11 7 8 6 6 6 8 8 20 32 31 45 37 29 26 18 14 16 13 3 3 4 11 18 20 15 8 4 7 11 8 6
16 21 29 47 58 39 10 16 9 12 26 16 33 45 30 36 15 21 19 12 5 8 11 10 4 10 6 11 8 11 21 3 21 20 26 24 24 22 16 10 6 6 10 16 22 20 21 17 19 14 9 12 10 8
27 20 28 46 52 23 10 10 22 10 10 17 33 43 40 39 25 10 11 8 6 10 9 6 8 4 15 23 16 11 13 18 27 23 20 17 12 7 6 10 11 16 18 18 26 34 34 29 29 17 11 17 16 12
37 30 47 54 28 9 10 14 14 13 14 13 24 46 30 29 22 19 23 21 11 8 11 5 5 7 7 8 11 10 15 17 12 16 23 10 13 7 11 8 12 13 11 11 12 16 12 20 10 19 16 14 17 11
42 54 47 34 16 9 7 18 13 13 18 16 11 8 11 9 12 15 19 14 7 17 10 6 1 11 16 13 20 3 10 11 3 8 6 2 5 16 17 18 10 7 8 8 14 23 21 10 8 15 13 16 21 25
55 40 28 10 9 9 13 15 13 9 4 6 7 5 5 3 3 8 5 6 11 33 21 13 3 7 19 29 20 10 7 9 2 5 3 4 10 8 13 13 12 16 10 13 12 10 14 17 20 21 20 24 23 28
38 18 8 9 16 7 7 8 8 6 4 3 2 5 5 2 3 4 5 10 1 10 26 26 35 33 34 41 30 15 7 4 9 11 11 5 4 9 15 11 14 10 16 17 20 25 23 21 28 22 18 15 15 13
10 14 9 3 6 7 8 9 5 3 6 7 5 2 4 3 3 2 6 8 10 28 25 10 37 59 54 33 22 18 7 10 4 16 12 12 9 10 6 7 10 12 13 14 19 15 16 21 18 11 12 15 13 16
4 9 9 18 11 9 9 10 12 10 5 7 10 3 3 4 3 5 4 8 27 30 23 23 24 16 12 7 7 9 10 10 9 9 11 6 6 10 10 15 21 20 13 19 14 18 18 14 14 12 12 15 17 18
6 11 11 15 7 8 4 4 6 7 11 12 8 7 1 7 6 4 18 39 30 16 17 14 11 7 5 5 14 11 14 15 13 7 6 6 5 5 11 16 18 17 15 16 21 22 21 20 19 21 22 26 25 29
15 11 16 24 10 10 8 11 14 7 5 9 11 20 11 6 6 13 23 26 17 16 13 13 11 12 12 8 4 10 13 8 7 10 9 1 7 32 25 27 17 21 25 37 34 23 27 31 33 38 36 42 43 32
16 19 15 14 11 12 12 10 13 5 33 37 23 23 39 41 33 24 19 24 19 18 16 17 19 14 14 14 13 8 9 8 10 8 15 17 27 29 15 19 10 22 26 23 27 41 26 24 32 44 41 45 34 31
54 79 36 40 15 23 22 26 22 43 49 53 55 55 56 61 57 51 46 37 28 31 23 19 24 28 21 21 14 1 4 4 6 7 24 22 25 32 21 24 22 20 20 15 20 30 12 20 32 40 37 33 49 53
39 54 49 40 27 36 50 56 58 58 52 49 45 48 41 37 42 53 46 25 25 24 21 29 24 17 18 21 30 26 26 18 19 15 13 16 15 15 20 27 38 33 24 17 25 36 40 38 33 22 23 22 24 18
36 43 39 32 39 45 49 46 44 47 45 43 43 38 35 45 23 33 51 33 28 21 25 24 17 26 29 28 23 30 27 23 20 13 9 17 25 22 18 22 28 33 33 30 29 29 36 32 27 36 33 33 34 38
38 41 33 20 10 13 26 24 32 35 38 35 27 29 30 22 13 10 32 36 35 20 19 22 22 28 21 23 13 15 22 20 11 11 15 20 26 28 26 23 25 23 20 23 21 17 26 33 33 33 36 36 33 34
Wind_Direction_850mb
244 244 249 256 258 264 269 271 258 250 236 217 223 233 245 254 260 272 280 207 256 271 284 285 295 290 307 311 327 326 333 2 329 45 22 338 348 357 10 51 337 356 331 20 347 318 296 332 121 67 139 106 133 107
236 238 242 248 252 259 265 269 256 245 229 212 218 224 238 242 256 264 255 235 287 266 273 289 285 268 257 255 273 284 288 324 359 347 164 181 357 2 337 318 341 77 1 315 44 347 318 59 87 105 105 99 76 83
231 233 238 241 246 253 258 263 254 240 221 206 216 224 233 243 250 262 273 307 329 306 305 278 275 274 273 263 243 235 246 224 201 282 289 147 141 144 147 256 196 39 339 332 208 88 192 97 78 88 95 99 97 112
225 227 233 236 240 246 253 254 250 230 208 207 212 220 229 241 245 258 277 296 276 309 285 298 324 293 302 238 228 230 242 261 281 291 284 269 175 203 235 229 129 84 166 271 279 16 35 27 23 39 78 82 79 50
219 222 227 229 232 239 247 257 219 210 196 211 214 221 222 238 250 275 290 292 201 270 296 300 314 252 274 215 218 237 231 250 264 292 291 248 281 165 235 157 222 183 190 158 321 142 126 195 57 86 330 3 45 20
216 219 222 224 227 233 235 239 209 197 204 206 215 214 220 238 241 291 341 35 304 279 286 290 295 287 260 245 202 224 233 238 242 249 283 277 300 288 276 84 137 164 212 197 154 214 221 163 181 201 241 284 321 312
213 215 218 220 223 229 226 216 200 195 201 201 215 205 217 229 229 214 234 214 234 257 256 285 285 287 238 236 212 227 232 237 251 271 268 277 285 288 220 114 169 202 196 220 193 214 162 174 239 250 246 324 324 296
205 209 210 216 219 217 219 207 193 192 190 198 188 196 213 237 255 271 275 234 295 288 253 273 275 278 233 198 209 229 233 244 231 220 236 238 274 207 231 151 173 174 185 196 167 160 226 198 63 63 46 36 48 60
200 205 206 207 212 210 210 197 189 194 180 189 185 181 205 228 213 283 258 246 266 232 299 266 279 307 349 320 250 194 212 238 254 210 216 227 244 225 237 167 174 179 205 232 150 119 70 91 70 40 358 343 12 356
194 196 205 203 206 203 191 182 181 183 177 173 162 158 198 214 172 223 258 226 230 219 232 251 269 282 333 354 299 303 188 207 266 222 216 165 239 140 116 118 120 116 137 261 277 277 2 100 102 108 18 15 57 55
195 200 200 199 198 196 186 178 176 168 165 162 162 151 140 176 200 235 236 214 195 221 211 238 225 252 276 325 291 291 308 259 223 233 153 184 55 127 121 111 108 114 108 225 224 243 194 163 162 138 130 93 44 23
192 195 195 192 192 189 186 176 181 179 170 165 131 118 115 202 235 257 227 229 237 221 220 190 194 199 257 249 238 274 220 279 286 54 72 33 287 128 127 119 120 159 258 356 117 214 60 130 102 135 114 317 279 63
188 194 192 189 188 188 186 176 174 181 158 138 123 144 157 228 205 226 219 230 209 232 151 161 197 213 204 216 342 14 332 211 159 195 182 80 172 111 112 133 138 73 48 46 59 70 83 94 110 138 178 288 219 155
188 189 190 187 186 187 170 170 184 170 149 143 170 171 214 204 224 209 249 260 232 294 147 187 219 274 275 189 128 94 296 288 151 247 83 152 119 107 88 80 105 81 60 52 52 49 39 21 359 292 311 22 342 259
186 189 188 186 187 175 166 175 178 161 166 187 200 213 219 238 263 267 247 265 248 263 201 132 165 77 286 347 41 158 201 227 269 87 106 135 139 132 107 73 61 58 30 14 30 57 34 8 16 25 101 311 232 250
183 185 192 186 182 169 170 180 168 171 179 249 246 255 271 232 244 259 236 325 310 197 187 115 272 236 55 22 285 193 262 281 101 92 127 133 130 124 119 139 116 69 48 30 13 8 5 357 346 355 358 147 188 225
178 171 196 186 174 171 177 177 165 175 179 258 250 256 268 275 299 320 300 292 190 228 202 244 205 241 102 296 78 318 260 150 121 133 140 143 142 141 144 109 85 77 68 46 21 358 343 343 314 343 216 181 192 243
157 169 164 177 168 170 167 148 151 183 208 233 257 253 264 263 273 297 274 322 20 295 244 261 313 242 190 227 279 9 16 98 134 143 144 147 146 149 164 134 133 120 323 349 325 331 334 281 333 185 302 207 214 269
118 179 170 172 169 154 124 167 161 219 229 239 252 265 284 302 237 252 321 317 341 311 340 303 176 262 252 267 334 338 333 247 127 156 147 147 166 162 133 128 160 212 270 281 299 297 295 282 277 296 169 187 221 255
143 169 168 163 155 159 155 172 181 259 258 227 233 253 261 260 276 271 323 303 288 316 252 237 251 9 346 339 20 12 29 59 145 174 157 152 161 144 184 202 237 258 267 274 310 304 283 294 260 261 252 236 228 215
150 149 158 171 176 195 190 168 186 219 262 263 230 226 245 256 255 268 264 276 239 229 236 314 66 305 317 310 11 75 47 359 154 171 150 150 187 217 259 272 243 262 278 277 306 339 336 329 319 248 281 268 239 225
147 157 169 151 189 219 258 210 222 213 205 251 332 289 274 306 295 274 286 247 245 237 289 200 91 297 234 359 309 295 159 230 342 107 108 106 225 258 264 246 356 237 214 279 305 310 312 287 232 276 302 278 260 230
149 157 160 158 186 218 259 217 214 216 208 176 212 241 206 208 290 305 35 29 217 218 221 252 249 230 243 267 265 252 211 200 136 271 224 300 309 355 37 17 345 328 313 314 311 301 281 288 295 293 285 269 265 228
142 146 140 206 198 233 269 199 193 167 142 206 193 236 208 198 12 178 56 305 321 216 242 262 227 210 222 261 255 234 231 271 261 301 212 216 53 24 336 343 358 327 315 333 339 328 309 293 292 298 277 257 251 248
150 187 199 227 174 203 191 157 144 211 187 185 237 226 144 169 90 265 227 121 123 231 247 182 200 225 230 261 240 195 217 300 47 103 62 29 358 329 18 18 357 352 342 337 333 330 326 331 321 296 291 287 300 308
173 190 173 192 175 206 191 170 186 189 181 183 220 79 63 246 261 325 276 186 175 229 251 206 181 173 144 135 158 192 84 75 54 15 4 37 49 29 14 347 335 1 12 348 328 352 341 335 336 338 314 296 273 263
216 197 204 199 183 167 205 221 168 193 202 202 154 131 181 215 168 145 191 137 152 126 127 107 89 46 102 65 48 63 66 43 43 42 88 29 347 287 306 330 338 332 335 342 334 312 315 298 313 297 296 290 288 287
234 225 194 181 174 197 268 188 187 211 316 240 200 180 186 99 106 111 125 131 136 107 81 58 29 357 335 291 293 43 74 97 63 52 27 272 337 328 302 320 313 310 328 330 317 307 288 289 284 288 294 283 283 286
202 213 200 176 217 229 241 231 212 206 104 97 90 90 101 111 124 142 124 95 92 68 62 68 46 46 62 70 105 93 95 56 15 30 19 14 356 347 329 338 264 274 331 331 306 313 291 288 281 288 292 295 308 302
136 170 174 183 160 131 125 107 75 108 98 97 97 87 76 66 69 79 76 66 65 71 58 62 53 42 47 54 58 103 305 336 351 31 1 338 13 17 345 314 300 307 322 358 319 331 345 322 318 330 304 296 303 299
83 73 64 59 51 67 71 83 80 78 77 78 86 88 88 80 69 54 57 50 52 67 74 44 41 35 47 20 11 20 23 358 342 345 6 34 26 2 359 351 347 359 350 320 324 335 321 313 332 345 326 319 20 332
84 90 86 85 77 76 80 85 87 87 85 89 95 89 77 72 62 44 29 42 69 76 51 57 68 72 58 48 41 35 32 17 21 36 28 345 337 336 337 333 325 325 333 342 339 329 332 339 355 3 11 6 359 358
86 88 95 88 73 82 91 92 80 76 74 65 58 77 81 73 83 123 63 61 60 72 69 41 41 41 44 39 33 27 11 12 16 29 3 343 342 338 333 342 342 344 342 341 338 0 354 347 345 344 348 353 349 351